RYR3136 EDDK-GCLP

Flight info

Callsign RYR3136
Flight time N/A
Altitude 34000
Route NVO2K NVO Y868 SOGRI UM617 CIV/N0456F330 N872 MEDIL DCT KOVIN DCT NIDUV DCT KIHVI UN872 TERPO/N0459F350 UN872 ERIGA UZ218 FUJTI DCT BAKUP DCT BATAX DCT GANSU DCT BEXAL/N0453F370 DCT SAMAR
Aircraft B738/M-SDE2E3FGHIRWXY/LB1

Departure

Time N/A
Airport Cologne Bonn Airport (EDDK)

Arrival

Time 2026-04-28 09:23
Airport Gran Canaria Airport (GCLP)
Time Latitude Longitude Altitude Speed Heading
2026-04-28 07:56 36.08813 -11.35655 36953 ft 440 kts 213°
2026-04-28 07:56 36.06201 -11.37630 36960 ft 440 kts 213°
2026-04-28 07:56 36.00950 -11.41596 37084 ft 443 kts 213°
2026-04-28 07:57 35.98332 -11.43568 37340 ft 441 kts 213°
2026-04-28 07:57 35.95692 -11.45497 37545 ft 441 kts 211°
2026-04-28 07:57 35.92969 -11.47278 37661 ft 443 kts 209°
2026-04-28 07:57 35.90212 -11.48995 37814 ft 444 kts 208°
2026-04-28 07:58 35.87483 -11.50663 37958 ft 443 kts 208°
2026-04-28 07:58 35.84709 -11.52355 37943 ft 446 kts 208°
2026-04-28 07:58 35.79164 -11.55762 37948 ft 444 kts 209°
2026-04-28 07:59 35.73665 -11.59170 37955 ft 441 kts 209°
2026-04-28 07:59 35.68192 -11.62571 37963 ft 439 kts 209°
2026-04-28 08:00 35.62743 -11.65955 37959 ft 438 kts 209°
2026-04-28 08:00 35.57339 -11.69307 37966 ft 438 kts 209°
2026-04-28 08:01 35.51891 -11.72680 37975 ft 439 kts 209°
2026-04-28 08:01 35.46426 -11.76057 37965 ft 440 kts 209°
2026-04-28 08:02 35.40930 -11.79448 37970 ft 442 kts 209°
2026-04-28 08:02 35.35422 -11.82842 37970 ft 444 kts 209°
2026-04-28 08:03 35.29924 -11.86224 37963 ft 445 kts 209°
2026-04-28 08:03 35.24366 -11.89637 37977 ft 447 kts 209°
2026-04-28 08:04 35.18807 -11.93046 37980 ft 447 kts 209°
2026-04-28 08:04 35.13237 -11.96456 37967 ft 448 kts 209°
2026-04-28 08:05 35.07665 -11.99862 37977 ft 447 kts 209°
2026-04-28 08:05 35.02197 -12.03200 37971 ft 447 kts 209°
2026-04-28 08:06 34.96641 -12.06586 37967 ft 446 kts 209°
2026-04-28 08:06 34.91083 -12.09968 37976 ft 446 kts 209°
2026-04-28 08:07 34.85557 -12.13326 37974 ft 445 kts 209°
2026-04-28 08:07 34.80016 -12.16688 37979 ft 445 kts 209°
2026-04-28 08:08 34.74466 -12.20051 37981 ft 446 kts 209°
2026-04-28 08:08 34.68906 -12.23414 37984 ft 446 kts 209°
2026-04-28 08:09 34.63332 -12.26780 37985 ft 446 kts 209°
2026-04-28 08:09 34.57799 -12.30117 37981 ft 447 kts 209°
2026-04-28 08:10 34.52224 -12.33474 37989 ft 447 kts 209°
2026-04-28 08:10 34.46640 -12.36831 37991 ft 448 kts 209°
2026-04-28 08:11 34.41055 -12.40184 37992 ft 448 kts 209°
2026-04-28 08:11 34.35456 -12.43541 37981 ft 449 kts 209°
2026-04-28 08:12 34.29845 -12.46899 37996 ft 450 kts 209°
2026-04-28 08:12 34.24221 -12.50261 37998 ft 451 kts 209°
2026-04-28 08:13 34.18614 -12.53607 37996 ft 453 kts 209°
2026-04-28 08:13 34.13874 -12.56432 37995 ft 454 kts 209°
2026-04-28 08:14 34.07268 -12.60362 37983 ft 455 kts 209°
2026-04-28 08:14 34.01624 -12.63715 38000 ft 455 kts 209°
2026-04-28 08:15 33.95949 -12.67081 37998 ft 455 kts 209°
2026-04-28 08:15 33.90270 -12.70445 37999 ft 454 kts 209°
2026-04-28 08:16 33.84595 -12.73800 37997 ft 454 kts 209°
2026-04-28 08:16 33.78931 -12.77145 37978 ft 453 kts 209°
2026-04-28 08:17 33.73276 -12.80480 38000 ft 452 kts 210°
2026-04-28 08:17 33.67659 -12.83788 38006 ft 453 kts 210°
2026-04-28 08:18 33.61987 -12.87123 38010 ft 453 kts 210°
2026-04-28 08:18 33.56315 -12.90452 38010 ft 454 kts 210°
2026-04-28 08:19 33.50631 -12.93784 38004 ft 455 kts 210°
2026-04-28 08:19 33.44945 -12.97113 38008 ft 455 kts 210°
2026-04-28 08:20 33.39382 -13.00365 38009 ft 456 kts 210°
2026-04-28 08:20 33.33673 -13.03696 38008 ft 456 kts 210°
2026-04-28 08:21 33.27955 -13.07029 38015 ft 457 kts 210°
2026-04-28 08:21 33.22244 -13.10352 38007 ft 456 kts 210°
2026-04-28 08:22 33.16535 -13.13669 37993 ft 456 kts 210°
2026-04-28 08:22 33.11790 -13.16423 38012 ft 456 kts 210°
2026-04-28 08:23 33.06086 -13.19728 38018 ft 456 kts 210°
2026-04-28 08:23 33.00382 -13.23030 38015 ft 456 kts 210°
2026-04-28 08:24 32.94684 -13.26322 38007 ft 456 kts 210°
2026-04-28 08:24 32.89006 -13.29599 38010 ft 456 kts 210°
2026-04-28 08:25 32.83286 -13.32895 38020 ft 456 kts 210°
2026-04-28 08:26 32.74714 -13.37825 38022 ft 456 kts 210°
2026-04-28 08:26 32.68985 -13.41114 38030 ft 456 kts 210°
2026-04-28 08:27 32.63292 -13.44378 38017 ft 456 kts 210°
2026-04-28 08:27 32.57567 -13.47656 38018 ft 456 kts 210°
2026-04-28 08:28 32.51844 -13.50927 38009 ft 456 kts 210°
2026-04-28 08:28 32.46124 -13.54193 38021 ft 457 kts 210°
2026-04-28 08:29 32.40387 -13.57464 38015 ft 457 kts 210°
2026-04-28 08:29 32.34683 -13.60711 38024 ft 457 kts 210°
2026-04-28 08:30 32.28946 -13.63972 38024 ft 458 kts 210°
2026-04-28 08:30 32.23195 -13.67237 38032 ft 458 kts 210°
2026-04-28 08:31 32.17443 -13.70498 38030 ft 458 kts 210°
2026-04-28 08:31 32.11687 -13.73756 38019 ft 458 kts 210°
2026-04-28 08:32 32.05968 -13.76988 38020 ft 457 kts 210°
2026-04-28 08:32 32.00226 -13.80229 38029 ft 456 kts 210°
2026-04-28 08:33 31.94511 -13.83450 38032 ft 455 kts 210°
2026-04-28 08:33 31.88790 -13.86671 38012 ft 454 kts 210°
2026-04-28 08:34 31.83121 -13.89857 38022 ft 453 kts 211°
2026-04-28 08:34 31.77442 -13.93045 38026 ft 452 kts 211°
2026-04-28 08:35 31.71765 -13.96229 38030 ft 451 kts 211°
2026-04-28 08:35 31.66093 -13.99404 38046 ft 451 kts 211°
2026-04-28 08:36 31.60523 -14.02519 38026 ft 451 kts 211°
2026-04-28 08:36 31.54859 -14.05681 38026 ft 451 kts 211°
2026-04-28 08:37 31.49196 -14.08839 38039 ft 450 kts 211°
2026-04-28 08:37 31.43576 -14.11969 38041 ft 450 kts 211°
2026-04-28 08:38 31.37912 -14.15118 38040 ft 450 kts 211°
2026-04-28 08:38 31.32241 -14.18268 38042 ft 450 kts 211°
2026-04-28 08:39 31.26568 -14.21414 38025 ft 450 kts 211°
2026-04-28 08:39 31.20944 -14.24529 38038 ft 450 kts 211°
2026-04-28 08:40 31.15278 -14.27664 38047 ft 450 kts 211°
2026-04-28 08:40 31.09612 -14.30794 38047 ft 451 kts 211°
2026-04-28 08:41 31.03937 -14.33926 38048 ft 452 kts 211°
2026-04-28 08:41 30.98263 -14.37053 38026 ft 452 kts 211°
2026-04-28 08:42 30.92575 -14.40183 38042 ft 452 kts 211°
2026-04-28 08:42 30.90688 -14.41220 38044 ft 452 kts 211°
2026-04-28 08:43 30.74655 -14.47337 38048 ft 459 kts 202°
2026-04-28 08:44 30.68541 -14.49513 38034 ft 458 kts 203°
2026-04-28 08:44 30.62466 -14.51732 38045 ft 457 kts 203°
2026-04-28 08:45 30.56403 -14.53961 38054 ft 456 kts 203°
2026-04-28 08:45 30.50350 -14.56185 38054 ft 456 kts 203°
2026-04-28 08:46 30.44307 -14.58399 38053 ft 455 kts 203°
2026-04-28 08:46 30.38310 -14.60593 38049 ft 454 kts 203°
2026-04-28 08:47 30.32293 -14.62790 38048 ft 453 kts 203°
2026-04-28 08:47 30.26279 -14.64984 38060 ft 453 kts 203°
2026-04-28 08:48 30.20266 -14.67175 38063 ft 453 kts 203°
2026-04-28 08:48 30.14252 -14.69364 38059 ft 453 kts 203°
2026-04-28 08:49 30.10271 -14.70811 38045 ft 453 kts 203°
2026-04-28 08:50 29.95819 -14.76053 38057 ft 453 kts 203°
2026-04-28 08:50 29.89791 -14.78236 38066 ft 454 kts 203°
2026-04-28 08:51 29.83760 -14.80416 38074 ft 454 kts 203°
2026-04-28 08:51 29.77728 -14.82593 38055 ft 454 kts 203°
2026-04-28 08:51 29.74692 -14.83690 37721 ft 460 kts 203°
2026-04-28 08:52 29.71633 -14.84794 37238 ft 460 kts 203°
2026-04-28 08:52 29.68623 -14.85878 36653 ft 458 kts 203°
2026-04-28 08:52 29.65594 -14.86966 36077 ft 456 kts 203°
2026-04-28 08:52 29.62557 -14.88058 35442 ft 457 kts 203°
2026-04-28 08:53 29.59523 -14.89149 34806 ft 458 kts 203°
2026-04-28 08:53 29.56467 -14.90248 34141 ft 459 kts 203°
2026-04-28 08:53 29.53405 -14.91349 33359 ft 461 kts 202°
2026-04-28 08:53 29.51377 -14.92077 32879 ft 461 kts 202°
2026-04-28 08:54 29.48311 -14.93177 32250 ft 460 kts 202°
2026-04-28 08:54 29.45274 -14.94263 31789 ft 455 kts 202°
2026-04-28 08:54 29.42263 -14.95339 31295 ft 451 kts 202°
2026-04-28 08:54 29.39269 -14.96409 30820 ft 447 kts 202°
2026-04-28 08:55 29.36311 -14.97467 30344 ft 443 kts 202°
2026-04-28 08:55 29.33376 -14.98517 29845 ft 440 kts 202°
2026-04-28 08:55 29.30467 -14.99557 29289 ft 436 kts 202°
2026-04-28 08:55 29.27677 -15.00553 28817 ft 431 kts 202°
2026-04-28 08:56 29.24830 -15.01569 28305 ft 427 kts 202°
2026-04-28 08:56 29.22011 -15.02574 27864 ft 421 kts 202°
2026-04-28 08:56 29.19229 -15.03567 27370 ft 417 kts 202°
2026-04-28 08:56 29.16466 -15.04552 26909 ft 414 kts 202°
2026-04-28 08:57 29.13765 -15.05514 26451 ft 410 kts 202°
2026-04-28 08:57 29.11047 -15.06483 25990 ft 407 kts 202°
2026-04-28 08:57 29.08358 -15.07440 25535 ft 404 kts 202°
2026-04-28 08:57 29.05678 -15.08393 25070 ft 401 kts 202°
2026-04-28 08:58 29.03018 -15.09339 24628 ft 399 kts 201°
2026-04-28 08:58 29.00374 -15.10279 24167 ft 397 kts 201°
2026-04-28 08:58 28.97754 -15.11210 23710 ft 396 kts 201°
2026-04-28 08:58 28.95128 -15.12142 23163 ft 394 kts 201°
2026-04-28 08:59 28.92522 -15.13067 22688 ft 391 kts 201°
2026-04-28 08:59 28.89936 -15.13983 22218 ft 387 kts 201°
2026-04-28 08:59 28.87373 -15.14891 21777 ft 384 kts 201°
2026-04-28 08:59 28.84829 -15.15792 21346 ft 381 kts 201°
2026-04-28 09:00 28.82304 -15.16686 20883 ft 378 kts 201°
2026-04-28 09:00 28.79801 -15.17572 20462 ft 375 kts 200°
2026-04-28 09:00 28.77310 -15.18453 20030 ft 373 kts 200°
2026-04-28 09:00 28.74834 -15.19329 19607 ft 371 kts 200°
2026-04-28 09:01 28.72407 -15.20185 19597 ft 359 kts 200°
2026-04-28 09:01 28.70031 -15.21025 19594 ft 369 kts 200°
2026-04-28 09:01 28.67537 -15.21910 19593 ft 381 kts 200°
2026-04-28 09:01 28.65000 -15.22805 19578 ft 382 kts 200°
2026-04-28 09:02 28.62493 -15.23686 19555 ft 377 kts 200°
2026-04-28 09:02 28.60073 -15.24535 19553 ft 377 kts 200°
2026-04-28 09:02 28.57601 -15.25402 19556 ft 378 kts 200°
2026-04-28 09:02 28.55092 -15.26282 19556 ft 378 kts 200°
2026-04-28 09:03 28.52569 -15.27167 19556 ft 379 kts 200°
2026-04-28 09:03 28.50044 -15.28052 19555 ft 379 kts 200°
2026-04-28 09:03 28.47525 -15.28934 19557 ft 379 kts 200°
2026-04-28 09:03 28.45009 -15.29816 19554 ft 379 kts 200°
2026-04-28 09:04 28.42524 -15.30685 19327 ft 369 kts 200°
2026-04-28 09:04 28.40098 -15.31531 18765 ft 367 kts 200°
2026-04-28 09:04 28.37657 -15.32387 18119 ft 365 kts 200°
2026-04-28 09:04 28.35266 -15.33228 17837 ft 351 kts 200°
2026-04-28 09:05 28.32998 -15.34023 17628 ft 335 kts 200°
2026-04-28 09:05 28.30795 -15.34793 17318 ft 328 kts 200°
2026-04-28 09:05 28.28543 -15.35398 17017 ft 346 kts 185°
2026-04-28 09:05 28.26075 -15.35007 16777 ft 369 kts 165°
2026-04-28 09:06 28.23692 -15.33874 16533 ft 376 kts 150°
2026-04-28 09:06 28.21633 -15.32038 16281 ft 375 kts 137°
2026-04-28 09:06 28.19777 -15.29972 16025 ft 373 kts 135°
2026-04-28 09:06 28.17957 -15.27874 15784 ft 372 kts 135°
2026-04-28 09:07 28.16151 -15.25791 15539 ft 371 kts 135°
2026-04-28 09:07 28.14337 -15.23720 15297 ft 369 kts 136°
2026-04-28 09:07 28.12519 -15.21668 15054 ft 369 kts 136°
2026-04-28 09:07 28.10697 -15.19626 14818 ft 368 kts 136°
2026-04-28 09:08 28.08899 -15.17620 14575 ft 366 kts 136°
2026-04-28 09:08 28.07085 -15.15601 14334 ft 365 kts 136°
2026-04-28 09:08 28.05252 -15.13563 14106 ft 364 kts 136°
2026-04-28 09:08 28.03310 -15.11827 13835 ft 359 kts 156°
2026-04-28 09:09 28.00932 -15.11178 13567 ft 350 kts 181°
2026-04-28 09:09 27.98555 -15.11526 13190 ft 344 kts 199°
2026-04-28 09:09 27.96337 -15.12472 12796 ft 339 kts 205°
2026-04-28 09:09 27.94165 -15.13510 12380 ft 337 kts 205°
2026-04-28 09:10 27.92017 -15.14548 11980 ft 335 kts 205°
2026-04-28 09:10 27.89878 -15.15572 11583 ft 333 kts 205°
2026-04-28 09:10 27.87745 -15.16581 11194 ft 331 kts 205°
2026-04-28 09:10 27.85622 -15.17576 10821 ft 330 kts 205°
2026-04-28 09:11 27.83526 -15.18553 10647 ft 321 kts 204°
2026-04-28 09:11 27.81484 -15.19495 10493 ft 312 kts 204°
2026-04-28 09:11 27.79501 -15.20406 10351 ft 304 kts 204°
2026-04-28 09:11 27.77568 -15.21286 10218 ft 295 kts 205°
2026-04-28 09:12 27.75708 -15.22129 10102 ft 287 kts 204°
2026-04-28 09:12 27.73873 -15.22962 9897 ft 283 kts 204°
2026-04-28 09:12 27.72045 -15.23799 9297 ft 291 kts 204°
2026-04-28 09:12 27.70139 -15.24677 8539 ft 301 kts 205°
2026-04-28 09:13 27.68172 -15.25591 7735 ft 309 kts 204°
2026-04-28 09:13 27.66168 -15.26543 6986 ft 315 kts 204°
2026-04-28 09:13 27.64151 -15.27529 6629 ft 313 kts 204°
2026-04-28 09:13 27.62181 -15.28504 6549 ft 302 kts 204°
2026-04-28 09:14 27.60277 -15.29451 6358 ft 296 kts 204°
2026-04-28 09:14 27.58444 -15.30381 6356 ft 282 kts 209°
2026-04-28 09:14 27.56999 -15.31757 6326 ft 267 kts 238°
2026-04-28 09:14 27.56346 -15.33626 6330 ft 257 kts 266°
2026-04-28 09:15 27.56345 -15.35630 6288 ft 260 kts 275°
2026-04-28 09:15 27.56442 -15.37693 6118 ft 263 kts 276°
2026-04-28 09:15 27.56565 -15.39759 5922 ft 267 kts 276°
2026-04-28 09:15 27.56697 -15.41823 5912 ft 261 kts 280°
2026-04-28 09:16 27.57284 -15.43721 5713 ft 255 kts 309°
2026-04-28 09:16 27.58519 -15.44948 5607 ft 249 kts 335°
2026-04-28 09:16 27.60173 -15.45604 5373 ft 253 kts 345°
2026-04-28 09:16 27.61871 -15.46124 5251 ft 251 kts 346°
2026-04-28 09:17 27.63549 -15.46620 5136 ft 248 kts 346°
2026-04-28 09:17 27.65211 -15.47105 5013 ft 246 kts 347°
2026-04-28 09:17 27.66866 -15.47593 4891 ft 245 kts 346°
2026-04-28 09:17 27.68495 -15.48068 4771 ft 238 kts 346°
2026-04-28 09:18 27.70087 -15.48480 4526 ft 235 kts 356°
2026-04-28 09:18 27.71663 -15.48186 4320 ft 231 kts 19°
2026-04-28 09:18 27.73171 -15.47540 4013 ft 233 kts 20°
2026-04-28 09:18 27.74702 -15.46874 3694 ft 237 kts 21°
2026-04-28 09:19 27.76241 -15.46189 3384 ft 239 kts 21°
2026-04-28 09:19 27.77790 -15.45500 3052 ft 239 kts 20°
2026-04-28 09:19 27.79322 -15.44818 2736 ft 232 kts 20°
2026-04-28 09:19 27.80734 -15.44190 2469 ft 214 kts 19°
2026-04-28 09:20 27.82063 -15.43601 2164 ft 195 kts 19°
2026-04-28 09:20 27.83275 -15.43063 1935 ft 181 kts 20°
2026-04-28 09:20 27.84408 -15.42560 1702 ft 167 kts 19°
2026-04-28 09:20 27.85441 -15.42102 1498 ft 152 kts 19°
2026-04-28 09:21 27.86383 -15.41683 1276 ft 139 kts 20°
2026-04-28 09:21 27.87280 -15.41286 1102 ft 141 kts 20°
2026-04-28 09:21 27.88209 -15.40878 878 ft 143 kts 20°
2026-04-28 09:21 27.89085 -15.40475 779 ft 136 kts 21°
2026-04-28 09:22 27.89972 -15.40061 552 ft 138 kts 20°
2026-04-28 09:22 27.90868 -15.39664 388 ft 139 kts 18°
2026-04-28 09:22 27.91758 -15.39288 163 ft 137 kts 18°
2026-04-28 09:22 27.92614 -15.38911 71 ft 125 kts 19°
2026-04-28 09:23 27.93285 -15.38614 57 ft 83 kts 21°
2026-04-28 09:23 27.93684 -15.38441 55 ft 40 kts 16°
2026-04-28 09:23 27.93821 -15.38424 61 ft 1 kts 356°
2026-04-28 09:23 27.93872 -15.38430 63 ft 16 kts 353°
2026-04-28 09:24 27.93988 -15.38448 70 ft 1 kts 352°
2026-04-28 09:24 27.94005 -15.38454 71 ft 8 kts 339°
2026-04-28 09:24 27.94053 -15.38514 65 ft 11 kts 293°
2026-04-28 09:25 27.94074 -15.38594 73 ft 11 kts 265°
2026-04-28 09:25 27.94024 -15.38647 81 ft 10 kts 202°
2026-04-28 09:25 27.93958 -15.38676 84 ft 10 kts 201°
2026-04-28 09:25 27.93894 -15.38705 85 ft 10 kts 201°
2026-04-28 09:26 27.93832 -15.38732 85 ft 9 kts 199°
2026-04-28 09:26 27.93771 -15.38758 82 ft 9 kts 202°
2026-04-28 09:26 27.93713 -15.38785 84 ft 9 kts 202°
2026-04-28 09:26 27.93671 -15.38810 87 ft 3 kts 231°
2026-04-28 09:27 27.93677 -15.38860 83 ft 3 kts 290°
2026-04-28 09:27 27.93685 -15.38885 85 ft 3 kts 290°
2026-04-28 09:27 27.93687 -15.38891 85 ft 1 kts 290°
2026-04-28 09:28 27.93689 -15.38896 85 ft 0 kts 292°